DateTimeUTC,F1_A11,F1_S11,BsB_S11,BsG_S11,BsR_S11,BbsB_S11,BbsG_S11,BbsR_S11,BaB_A11,BaG_A11,BaR_A11,Tu_S11,T_S11,Uu_S11,U_S11,P_S11,T1_A11
2021-03-05T18:00:00Z,00000200,21000000,,,,,,,-000.17,-000.32,-000.15,17.7,24.8,00.9,00.6,0657.8,31.0
2021-03-05T18:01:00Z,00000200,21000000,,,,,,,-000.34,0000.00,-000.16,17.7,24.8,00.9,00.6,0657.9,31.0
2021-03-05T18:02:00Z,00000200,21000000,,,,,,,-000.04,-000.09,0000.15,17.7,24.8,00.9,00.6,0657.9,31.0
2021-03-05T18:03:00Z,00000200,61000000,,,,,,,0000.33,0000.20,-000.04,17.7,24.8,00.9,00.6,0657.9,31.0
2021-03-05T18:04:00Z,00000200,41000000,0000.85,0000.36,0000.16,0000.05,0000.10,0000.19,0000.25,0000.53,0000.21,17.8,24.6,01.2,00.8,0658.8,31.0
2021-03-05T18:05:00Z,00000200,01000000,0000.64,0000.30,0000.21,0000.53,0000.20,0000.00,0000.46,0000.17,0000.52,17.8,24.6,01.1,00.8,0658.9,31.0
2021-03-05T18:06:00Z,00000200,01000000,0000.92,0000.54,0000.38,-000.08,0000.15,0000.18,0000.36,0000.41,-000.04,17.8,24.6,01.2,00.8,0658.9,30.9
2021-03-05T18:07:00Z,00000200,01000000,0001.05,0000.75,0000.16,0000.18,0000.20,0000.29,0000.25,0000.45,0000.15,17.8,24.6,01.2,00.8,0658.9,30.9
2021-03-05T18:08:00Z,00000200,01000000,0000.99,0000.45,0000.19,0000.75,0000.22,-000.02,0000.51,0000.05,0000.53,17.8,24.6,01.3,00.8,0658.9,31.0
2021-03-05T18:09:00Z,00000200,01000000,0000.96,0000.66,0000.08,0000.06,0000.04,0000.25,0000.40,0000.64,0000.22,17.8,24.5,01.2,00.8,0658.9,30.9
2021-03-05T18:10:00Z,00000200,01000000,0001.01,0000.39,0000.60,0000.47,0000.10,0000.23,0000.46,0000.37,0000.29,17.8,24.5,01.3,00.8,0659.0,30.9
2021-03-05T18:11:00Z,00000200,01000000,0000.73,0000.34,0000.38,0000.40,0000.11,0000.15,0000.29,0000.19,0000.62,17.8,24.5,01.3,00.8,0658.9,30.9
2021-03-05T18:12:00Z,00000200,01000000,0000.92,0000.64,0000.25,0000.02,0000.17,-000.07,0000.26,0000.27,-000.38,17.8,24.5,01.3,00.9,0659.0,30.9
2021-03-05T18:13:00Z,00000200,01000000,0000.56,0000.57,0000.34,-000.06,0000.28,0000.14,0000.33,0000.22,0000.28,17.8,24.5,01.3,00.8,0658.9,30.9
2021-03-05T18:14:00Z,00000200,01000000,0000.78,0000.43,0000.17,-000.10,0000.10,0000.14,0000.29,0000.47,0000.26,17.7,24.5,01.3,00.8,0659.0,30.9
2021-03-05T18:15:00Z,00000200,01000000,0000.55,0000.38,0000.30,-000.14,0000.38,-000.12,0000.50,0000.23,0000.35,17.7,24.5,01.3,00.8,0658.9,31.0
2021-03-05T18:16:00Z,00000200,01000000,0000.42,0000.45,0000.32,-000.01,0000.01,-000.00,0000.31,-000.05,-000.00,17.7,24.5,01.3,00.9,0659.0,31.0
2021-03-05T18:17:00Z,00000200,01000000,0000.87,0000.71,0000.29,-000.23,0000.37,-000.01,0000.23,0000.56,0000.40,17.7,24.5,01.4,00.9,0659.0,30.9
2021-03-05T18:18:00Z,00000200,01000000,0000.59,0000.37,0000.28,0000.34,-000.12,0000.23,0000.45,0000.29,0000.32,17.7,24.5,01.4,00.9,0658.9,30.9
2021-03-05T18:19:00Z,00000200,01000000,-000.14,0000.40,0000.51,0000.02,0000.17,0000.08,0000.23,0000.15,0000.21,17.7,24.5,01.4,00.9,0658.9,30.9
2021-03-05T18:20:00Z,00000200,01000000,0000.90,0000.57,0000.55,-000.05,0000.19,0000.18,0000.27,0000.63,0000.22,17.7,24.5,01.4,00.9,0659.0,30.9
2021-03-05T18:21:00Z,00000200,01000000,0001.06,0000.59,0000.47,0000.07,0000.14,0000.29,0000.64,0000.20,0000.26,17.7,24.5,01.4,00.9,0659.0,30.9
2021-03-05T18:22:00Z,00000200,01000000,0001.09,0000.62,0000.26,0000.13,0000.28,-000.09,0000.08,0000.32,0000.10,17.7,24.4,01.5,01.0,0658.9,30.9
2021-03-05T18:23:00Z,00000200,01000000,0001.09,0000.48,0000.41,-000.16,0000.14,0000.07,0000.66,0000.44,0000.52,17.7,24.4,01.5,01.0,0658.9,30.9
2021-03-05T18:24:00Z,00000200,01000000,0000.91,0000.49,-000.06,0000.17,0000.09,-000.03,0000.46,0000.36,0000.01,17.7,24.4,01.5,01.0,0658.9,30.9
2021-03-05T18:25:00Z,00000200,01000000,0001.01,0000.72,0000.21,-000.22,0000.18,-000.06,0000.37,0000.17,0000.16,17.7,24.4,01.5,01.0,0658.9,30.9
2021-03-05T18:26:00Z,00000200,01000000,0000.71,0000.58,0000.28,-000.23,0000.29,0000.10,0000.10,0000.57,0000.35,17.7,24.4,01.5,01.0,0658.9,31.0
2021-03-05T18:27:00Z,00000200,01000000,0000.71,0000.94,0000.45,0000.24,0000.10,-000.03,0000.39,0000.23,0000.33,17.7,24.4,01.6,01.0,0658.9,31.0
2021-03-05T18:28:00Z,00000200,01000000,0000.76,0000.74,0000.03,0000.03,-000.02,-000.05,0000.58,0000.56,0000.20,17.7,24.4,01.6,01.0,0658.9,30.9
2021-03-05T18:29:00Z,00000200,01000000,0000.65,0001.09,0000.32,0000.54,0000.15,0000.37,0000.40,0000.43,0000.32,17.7,24.4,01.6,01.0,0658.9,30.9
2021-03-05T18:30:00Z,00000200,01000000,0000.72,0000.53,0000.50,0000.07,0000.08,0000.16,0000.18,0000.10,0000.18,17.7,24.4,01.6,01.1,0658.9,30.9
2021-03-05T18:31:00Z,00000200,01000000,0000.77,0000.81,0000.52,0000.22,0000.18,0000.27,0000.67,0000.54,0000.46,17.7,24.4,01.6,01.1,0658.9,30.9
2021-03-05T18:32:00Z,00000200,01000000,0000.74,0000.68,0000.57,0000.06,0000.07,0000.05,0000.39,0000.55,0000.23,17.8,24.4,01.6,01.1,0658.9,31.0
2021-03-05T18:33:00Z,00000200,01000000,0001.19,0000.83,0000.24,0000.31,0000.14,0000.14,0000.53,0000.32,0000.58,17.8,24.4,01.6,01.1,0658.9,31.0
2021-03-05T18:34:00Z,00000200,01000000,0000.54,0000.72,0000.45,0000.80,0000.39,0000.14,0000.69,0000.52,-000.18,17.9,24.5,01.6,01.1,0658.9,31.0
2021-03-05T18:35:00Z,00000200,01000000,0000.84,0000.73,0000.34,0000.52,0000.38,0000.01,0000.27,0000.32,0000.79,17.8,24.5,01.6,01.1,0658.9,31.0
2021-03-05T18:36:00Z,00000200,01000000,0001.24,0000.77,0000.26,0000.26,0000.32,-000.01,0000.74,0000.63,0000.39,17.9,24.5,01.6,01.1,0658.9,31.0
2021-03-05T18:37:00Z,00000200,01000000,0000.27,0000.74,0000.71,-000.03,0000.17,0000.05,0000.15,0000.32,-000.04,17.9,24.5,01.7,01.2,0658.9,31.0
2021-03-05T18:38:00Z,00000200,01000000,0001.42,0000.79,0000.48,0000.06,0000.34,0000.08,0000.96,0000.23,0000.47,17.8,24.5,01.7,01.1,0658.9,31.0
2021-03-05T18:39:00Z,00000200,01000000,0001.08,0001.12,0000.47,0000.18,0000.20,0000.19,0000.30,0000.41,0000.21,17.8,24.5,01.7,01.1,0658.8,31.0
2021-03-05T18:40:00Z,00000200,01000000,0000.91,0000.81,0000.21,0000.45,0000.17,-000.06,0000.25,0000.56,0000.36,17.8,24.5,01.7,01.1,0658.9,31.0
2021-03-05T18:41:00Z,00000200,01000000,0001.02,0000.73,0000.69,0000.25,0000.21,-000.00,0000.46,0000.10,-000.12,17.8,24.5,01.7,01.1,0658.8,30.9
2021-03-05T18:42:00Z,00000200,01000000,0001.21,0000.92,0000.45,-000.01,0000.30,-000.03,0000.23,0000.44,0000.55,17.8,24.4,01.7,01.1,0658.8,30.9
2021-03-05T18:43:00Z,00000200,01000000,0000.98,0000.98,0000.38,0000.04,0000.17,0000.27,0000.61,0000.39,0000.32,17.8,24.4,01.7,01.1,0658.9,30.9
2021-03-05T18:44:00Z,00000200,01000000,0000.89,0000.85,0000.69,0000.40,0000.09,0000.07,0000.34,0000.34,0000.18,17.8,24.4,01.7,01.1,0658.8,30.9
2021-03-05T18:45:00Z,00000200,01000000,0001.30,0000.82,0000.46,0000.17,0000.12,0000.13,0000.70,0000.39,0000.50,17.8,24.4,01.8,01.2,0658.8,30.9
2021-03-05T18:46:00Z,00000200,01000000,0000.72,0000.66,0000.48,0000.40,0000.33,0000.04,0000.41,0000.51,0000.37,17.8,24.4,01.6,01.1,0658.9,31.0
2021-03-05T18:47:00Z,00000200,01000000,0001.02,0000.94,0000.48,-000.28,0000.28,0000.33,0000.80,0000.74,0000.37,17.9,24.4,01.7,01.1,0658.9,31.0
2021-03-05T18:48:00Z,00000200,01000000,0001.33,0000.97,0000.56,0000.38,-000.02,0000.12,0000.21,0000.10,-000.06,17.9,24.5,01.7,01.1,0658.9,31.0
2021-03-05T18:49:00Z,00000200,01000000,0000.67,0000.82,0000.42,0000.02,0000.32,0000.18,0000.22,0000.53,0000.59,17.9,24.5,01.6,01.1,0658.9,31.0
2021-03-05T18:50:00Z,00000200,01000000,0001.52,0001.04,0000.44,0000.35,0000.31,0000.17,0000.80,0000.53,0000.02,18.0,24.5,01.7,01.2,0658.9,31.0
2021-03-05T18:51:00Z,00000200,01000000,0000.97,0000.73,0000.55,0000.16,0000.23,0000.17,0000.32,0000.35,0000.52,17.9,24.5,01.7,01.1,0658.8,31.0
2021-03-05T18:52:00Z,00000200,01000000,0001.42,0000.98,0000.65,0000.38,0000.22,0000.45,0000.52,0000.27,0000.29,17.9,24.5,01.7,01.2,0658.9,31.0
2021-03-05T18:53:00Z,00000200,01000000,0001.05,0000.87,0000.57,0000.09,0000.51,0000.18,0000.48,0000.25,0000.10,17.9,24.5,01.7,01.1,0658.9,31.0
2021-03-05T18:54:00Z,00000200,01000000,0001.65,0001.12,0000.55,0000.67,0000.33,0000.05,0000.71,0000.70,0000.58,17.9,24.5,01.7,01.1,0658.9,31.0
2021-03-05T18:55:00Z,00000200,01000000,0000.79,0000.72,0000.51,0000.42,0000.38,0000.11,0000.27,0000.21,0000.16,17.9,24.5,01.7,01.2,0658.9,31.0
2021-03-05T18:56:00Z,00000200,01000000,0000.88,0001.00,0000.55,0000.30,0000.37,0000.23,0000.97,0000.93,0000.62,17.9,24.5,01.8,01.2,0658.9,31.0
2021-03-05T18:57:00Z,00000200,40000000,,,,,,,-000.22,-000.54,-000.26,17.9,24.5,02.2,01.5,0659.0,30.9
2021-03-05T18:58:00Z,00000200,60000000,,,,,,,-000.37,0000.28,-000.01,17.6,24.6,01.6,01.1,0658.0,30.9
2021-03-05T18:59:00Z,00000200,20000000,,,,,,,0000.28,0000.22,0000.25,17.6,24.7,01.7,01.1,0657.9,30.9
